Regional Weather Roundup
Issued by NWS

Home | Current Version | Previous Version | Text Only | Print | Product List | Glossary Off
Versions: 1 2 3 4 5 6 7 8 9 10 11 12 13 14 15 16 17 18 19 20 21 22 23 24 25 26 27 28 29 30 31 32 33 34 35 36 37 38 39 40 41 42 43 44 45 46 47 48 49 50

000
ASUS43 KIND 231659
RWRIN

WEATHER ROUNDUP FOR INDIANA
NATIONAL WEATHER SERVICE INDIANAPOLIS IN
100 PM EDT SUN APR 23 2017

NOTE: "FAIR" INDICATES FEW OR NO CLOUDS BELOW 12,000 FEET WITH NO
SIGNIFICANT WEATHER AND/OR OBSTRUCTIONS TO VISIBILITY.

* - STATION DOES NOT REPORT WEATHER SUCH AS PRECIPITATION OR FOG.

+ - STATION NOT QUALITY CONTROLLED BY THE NATIONAL WEATHER SERVICE.
    USE DATA WITH CAUTION...ESPECIALLY DEWPOINT AND RELATIVE
    HUMIDITY OBSERVATIONS.

INZ001>003-010>013-019-020-231800-
NORTHWEST INDIANA

CITY           SKY/WX    TMP DP  RH WIND       PRES   REMARKS
GARY /AIRPORT/ SUNNY     64  23  20 N7        30.12F
KNOX *+        SUNNY     63   0   8 N8        30.10F
MONTICELLO +   SUNNY     63  30  28 NE8       30.08F

$$

LMZ046-743>745-231800-
SOUTHERN LAKE MICHIGAN

STATION/POSITION TIME  TEMP    WIND        PRES    WAVE
                       AIR SEA DIR/SP/G            HT
                 (UTC) (F)     (DEG/KT/KT) (MB)    (FT)
BURNS HARBOR     1640   52      50/  5/  6 1020.7F
MICHIGAN CITY    1630   47      20/  3/  3   N/A

$$

INZ004-005-014>016-021>024-231800-
NORTH CENTRAL INDIANA

CITY           SKY/WX    TMP DP  RH WIND       PRES   REMARKS
GOSHEN         SUNNY     63  34  33 NE3       30.10F
SOUTH BEND     SUNNY     64  32  30 NW6       30.11F

$$

INZ006>009-017-018-025>027-231800-
NORTHEAST INDIANA

CITY           SKY/WX    TMP DP  RH WIND       PRES   REMARKS
ANGOLA *+      SUNNY     63  54  72 NE5       30.09F
FORT WAYNE     SUNNY     61  33  35 E7        30.10F
KENDALLVILLE + SUNNY     62  34  34 CALM      30.10S

$$

INZ028-029-035-036-043>045-051>053-231800-
WEST CENTRAL INDIANA

CITY           SKY/WX    TMP DP  RH WIND       PRES   REMARKS
CRAWFORDSVL +  SUNNY     60  32  35 N14G20    30.08F
LAFAYETTE      SUNNY     60  38  43 E9        30.09F
TERRE HAUTE    LGT RAIN  64  32  30 NE16G22   30.05F

$$

INZ030>032-037>040-046>048-054>057-064-065-231800-
CENTRAL INDIANA

CITY           SKY/WX    TMP DP  RH WIND       PRES   REMARKS
COLUMBUS       SUNNY     63  28  27 NE18      30.01F
INDIANAPOLIS   MOSUNNY   63  33  32 NE16      30.05F
-EAGLE CREEK   SUNNY     63  34  33 NE10      30.05F
KOKOMO +       SUNNY     61  33  35 NE12      30.10F
SHELBYVILLE    SUNNY     65  33  30 NE17G25   30.01F

$$

INZ033-034-041-042-049-050-058-059-231800-
EAST CENTRAL INDIANA

CITY           SKY/WX    TMP DP  RH WIND       PRES   REMARKS
MUNCIE         SUNNY     64  33  31 NE15      30.07F
RICHMOND +     SUNNY     61  34  36 NE16      30.03F

$$

INZ060-061-067>069-081>083-085>088-231800-
SOUTHWEST INDIANA

CITY           SKY/WX    TMP DP  RH WIND       PRES   REMARKS
EVANSVILLE     MOSUNNY   63  41  44 N17G25    29.97F
HUNTINGBURG *+ SUNNY     61  40  45 NE21G29   29.97F

$$

INZ062-063-066-070>080-084-089>092-231800-
SOUTH CENTRAL AND SOUTHEAST INDIANA

CITY           SKY/WX    TMP DP  RH WIND       PRES   REMARKS
BLOOMINGTON    SUNNY     63  33  32 NE15      30.01F
MADISON *+     SUNNY     61  34  36 NE13G22   30.01R
SEYMOUR +      SUNNY     64  39  39 NE15G22   30.00F

$$




USA.gov is the U.S. government's official web portal to all federal, state and local government web resources and services.